Погода в Бенкулу

Индонезия     3°50′12″S   102°19′31″E
темп.,
°C
ветер,
м/с
пор.,
м/с
влажн.,
%
обл.,
%
осадки,
мм/ч
давл.,
гПа
погр.,
м
5 августа, чт
чт501:00+24ссз3491100 2.0 1013231
04:00+24с239195 0.9 1012191
07:00+24ссв1290100 0.9 1013142
10:00+25ссз1283100 0.0 1014222
13:00+26ссз0180100 0.3 1013355
16:00+27всв127697 0.0 1010450
19:00+25в118397 0.0 1012147
22:00+24всв1186100 0.0 101390
6 августа, пт
пт601:00+24в128768 0.0 101298
04:00+23св2288100 0.0 101197
07:00+24св118536 0.0 101299
10:00+28зюз116638 0.0 1013565
13:00+29юз326475 0.0 1011852
16:00+29юз3369100 0.0 1009593
19:00+26юз0180100 0.1 1011279
22:00+25всв2287100 0.1 1013132
7 августа, сб
сб701:00+24св229313 1.4 101283
04:00+24св119197 0.4 101185
07:00+24св229039 0.4 1012103
10:00+29юз116851 0.0 1013583
13:00+29юз426643 0.0 1010877
16:00+29юз226817 0.1 1009749
19:00+27ююв1279100 0.2 1011318
22:00+25в118716 1.6 1013129
8 августа, вс
вс801:00+23св229633 5.6 101299
04:00+23всв1293100 0.7 101198
07:00+24св129197 0.7 1012100
10:00+28ю117090 0.0 1013511
13:00+29юз326946 0.2 1011739
16:00+28ююз2277100 1.3 1009561
19:00+26юв118286 1.7 1011279
22:00+25в128931 1.0 1012137
9 августа, пн
пн901:00+24всв229515 4.6 1011102
04:00+23всв229344 0.6 101092
07:00+24всв129141 1.3 1011100
10:00+28ююз117019 0.1 1012538
13:00+29юз337287 0.6 1010634
16:00+28ююз227746 1.3 1008539
19:00+26вюв1283100 1.9 1010293
22:00+25вюв2389100 3.7 1011207